SAS735 EPKK-EPSC

Flight info

Callsign SAS735
Flight time N/A
Altitude 16000
Route LUMVE L619 DENKO L996 XERBI DCT FORFE DCT ZAWIK
Aircraft AT76/M-SDFGIRY/S

Departure

Time 2026-05-01 07:49
Airport Kraków John Paul II International Airport (EPKK)

Arrival

Time N/A
Airport Solidarity Szczecin–Goleniów Airport (EPSC)
Time Latitude Longitude Altitude Speed Heading
2026-05-01 07:35 50.07591 19.80159 787 ft 0 kts 347°
2026-05-01 07:45 50.07596 19.80157 787 ft 1 kts 347°
2026-05-01 07:45 50.07618 19.80149 787 ft 3 kts 355°
2026-05-01 07:46 50.07640 19.80190 787 ft 9 kts 69°
2026-05-01 07:46 50.07658 19.80320 787 ft 12 kts 78°
2026-05-01 07:46 50.07832 19.80340 787 ft 16 kts 347°
2026-05-01 07:47 50.07839 19.80338 787 ft 2 kts 347°
2026-05-01 07:47 50.07886 19.80322 787 ft 11 kts 348°
2026-05-01 07:47 50.07978 19.80287 786 ft 16 kts 339°
2026-05-01 07:47 50.08006 19.80151 787 ft 6 kts 258°
2026-05-01 07:48 50.07957 19.79792 786 ft 68 kts 258°
2026-05-01 07:48 50.07818 19.78774 789 ft 119 kts 257°
2026-05-01 07:48 50.07606 19.77412 1067 ft 127 kts 256°
2026-05-01 07:49 50.07421 19.75989 1446 ft 140 kts 258°
2026-05-01 07:49 50.07005 19.73014 2549 ft 138 kts 257°
2026-05-01 07:49 50.06841 19.72053 2978 ft 137 kts 259°
2026-05-01 07:50 50.06618 19.70565 3618 ft 146 kts 261°
2026-05-01 07:50 50.06177 19.67404 5011 ft 152 kts 263°
2026-05-01 07:50 50.05885 19.65247 5904 ft 154 kts 264°
2026-05-01 07:51 50.05655 19.63603 6545 ft 156 kts 264°
2026-05-01 07:51 50.05500 19.62493 6947 ft 158 kts 265°
2026-05-01 07:51 50.05271 19.60770 7473 ft 165 kts 265°
2026-05-01 07:52 50.04781 19.57236 8631 ft 170 kts 265°
2026-05-01 07:52 50.04530 19.55399 9162 ft 177 kts 265°
2026-05-01 07:52 50.04265 19.53504 9718 ft 180 kts 265°
2026-05-01 07:53 50.03718 19.49598 10714 ft 190 kts 265°
2026-05-01 07:53 50.03432 19.47586 11245 ft 191 kts 265°
2026-05-01 07:53 50.03146 19.45579 11782 ft 191 kts 265°
2026-05-01 07:53 50.02858 19.43550 12255 ft 196 kts 265°
2026-05-01 07:54 50.03055 19.39620 13259 ft 180 kts 300°
2026-05-01 07:55 50.04555 19.34180 14667 ft 187 kts 304°
2026-05-01 07:55 50.05611 19.30442 15567 ft 190 kts 304°
2026-05-01 07:56 50.07179 19.24734 16860 ft 195 kts 304°